Lid_Strength_Index
1 0 0 0 -0 -0 -0 -0 -0 -1 -1 -1 -1 -1 -1 -0 -1 -0 -1 -0 -0 -0 -0 -0 0 -1 0 -0 -0 -0 1 1 3 1 0 -1 -1 -1 -1 -2 -1 -2 -1
0 0 0 0 -0 0 0 -0 -1 -0 -1 -1 -1 -0 -1 -0 -1 -0 0 -0 0 0 0 -0 0 -0 -0 -0 0 0 0 -0 1 2 1 0 -0 -1 -1 -1 -1 -1 -1
0 1 1 0 0 0 0 -0 -0 -0 -1 -0 -1 -0 -0 -0 -0 -1 -0 -0 -0 -0 -0 0 0 -0 0 0 0 0 -0 0 0 1 2 0 -0 -1 -0 -1 -1 -1 -1
1 1 1 1 0 0 -0 -0 -0 -0 -0 -0 -0 -0 -0 -0 -0 -0 -0 -0 -0 -0 -1 -0 -0 -0 0 -0 0 -0 -0 1 0 1 1 1 1 -1 -0 1 1 -0 -0
1 1 1 0 0 -0 0 -0 -0 -0 -0 -0 -1 -0 -1 -0 -0 -0 -0 -0 -0 -0 -0 -0 -1 -0 1 0 -0 -0 -0 0 1 1 2 2 1 1 1 0 1 -0 -0
1 1 1 0 0 0 0 0 -0 0 -0 -0 0 -0 -0 -0 5 4 2 -0 -0 -0 0 -0 -1 1 1 2 2 3 1 0 1 1 1 2 1 1 0 1 0 1 2
2 1 1 1 1 0 0 0 0 0 -0 0 -0 -0 0 -0 5 5 4 -0 0 0 -0 0 -0 -1 0 -1 2 3 3 4 2 -0 1 1 1 0 -0 1 0 0 1
1 1 1 1 1 1 1 1 0 0 0 0 0 0 -0 3 8 7 5 -0 -0 -0 -0 -0 -0 -0 0 1 0 0 1 1 1 -1 -1 -1 -1 -1 -1 -1 -1 -0 0
2 2 1 1 1 1 2 1 1 1 1 1 0 1 1 2 8 7 5 -0 0 0 2 3 2 2 5 4 1 2 2 3 6 6 6 6 5 5 3 -1 0 1 1
2 2 1 1 1 2 2 1 1 1 2 4 6 6 8 5 7 8 5 0 1 2 4 4 7 5 7 6 0 1 1 2 3 3 3 3 3 3 4 1 0 1 1
1 1 1 1 1 1 1 1 1 3 4 6 7 7 7 8 5 8 6 1 2 4 4 4 5 8 9 8 6 -0 1 1 4 3 3 4 4 4 4 4 4 4 3
1 1 1 1 1 1 2 3 3 4 6 7 7 8 7 7 9 9 8 6 5 5 6 7 9 10 10 9 7 8 7 5 5 5 5 6 6 6 6 6 6 6 7
2 4 3 3 3 2 3 4 5 5 6 7 7 7 7 8 8 10 9 8 7 5 6 8 9 10 10 9 9 8 7 6 7 8 10 10 10 9 7 6 7 7 7
5 6 7 7 7 7 6 4 4 4 5 4 5 6 7 7 8 8 8 6 6 6 6 7 8 9 9 9 8 8 8 7 8 8 10 9 9 9 10 9 9 7 8
6 7 7 7 9 10 11 10 10 11 10 5 5 7 9 10 13 13 13 10 8 7 7 7 7 8 8 9 9 9 9 9 9 8 9 10 10 11 10 9 10 9 10
7 7 7 7 7 8 8 10 11 12 13 13 13 11 12 13 14 14 14 14 13 11 6 6 8 8 8 8 7 7 7 8 7 7 8 9 9 9 9 9 9 10 10
4 5 6 6 5 6 5 5 7 10 12 13 13 12 12 11 13 14 14 13 13 11 6 7 6 7 8 9 8 8 8 8 7 8 8 8 9 9 9 9 10 10 10
2 6 4 4 4 4 5 6 6 5 6 7 11 10 12 12 13 14 13 11 8 8 7 7 8 8 9 9 9 8 10 9 8 9 10 9 9 9 9 9 9 9 8
3 4 3 2 1 3 3 4 5 5 6 8 8 10 10 11 11 12 13 6 6 6 6 6 7 7 8 9 9 9 10 10 10 10 9 10 9 9 9 9 10 11 10
3 5 3 3 2 1 1 2 4 4 4 5 5 5 5 6 4 4 5 5 4 4 5 5 6 6 7 7 8 9 10 11 10 11 10 11 11 10 10 10 10 9 8
3 3 5 3 3 3 3 2 2 2 2 3 4 5 8 3 3 3 3 3 3 3 4 4 4 5 6 7 7 8 8 9 10 11 11 11 11 11 10 10 10 10 9
1 1 2 2 2 3 3 3 3 3 3 2 3 4 9 3 2 2 2 2 2 2 3 3 4 4 4 5 6 7 8 9 9 9 10 10 10 10 9 9 9 8 7
0 1 1 2 2 4 3 3 3 3 3 2 2 3 4 3 3 2 2 2 3 3 3 3 3 4 3 3 4 4 6 6 6 6 7 8 8 8 8 8 7 7 6
0 0 1 2 2 3 3 3 2 5 3 2 1 2 2 2 2 2 2 1 2 3 3 3 3 3 3 4 4 4 4 5 5 5 5 5 6 7 5 5 5 6 5
0 1 1 1 1 2 2 2 2 2 2 2 2 2 2 2 2 2 2 2 3 3 3 4 4 4 4 4 5 5 9 10 6 8 5 5 5 5 5 4 4 4 5
-0 -0 0 1 1 1 1 1 1 2 2 4 3 2 2 2 2 2 2 3 3 4 4 4 4 4 4 4 4 8 12 11 8 11 4 4 4 4 4 4 5 4 4